Regional Weather Roundup
Issued by NWS Charleston, SC

Current Version | Previous Version | Graphics & Text | Print | Product List | Glossary On
Versions: 1 2 3 4 5 6 7 8 9 10 11 12 13 14 15 16 17 18 19 20 21 22 23 24 25 26 27 28 29 30 31 32 33 34 35 36 37 38 39 40 41 42 43 44 45 46 47 48 49 50
478 ASUS42 KCHS 200127 RWRCHS Regional Weather Roundup National Weather Service Charleston SC 900 PM EDT THU APR 19 2018 NOTE: "fair" indicates few or no clouds below 12,000 feet with no significant weather and/or obstructions to visibility. Not all stations are quality controlled. Use data with caution, especially dewpoint observations. SCZ027-030-031-034>040-042>050-200200- ...Southeast South Carolina... CITY SKY/WX TMP DP RH WIND PRES REMARKS N Charleston FAIR 72 38 29 NW12 29.99R Waterfront Prk N/A 77 43 29 NW6G13 29.81R Mount Pleasant FAIR 72 41 33 NW6 30.01R Johns Island FAIR 73 41 31 NW7G14 30.01R Pinopolis N/A 70 54 56 NW8 29.90R Moncks Corner FAIR 68 36 30 CALM 30.02R Summerville FAIR 68 37 32 NW5 30.03R Beaufort MCAS N/A 73 47 39 NW7 30.01 Beaufort Arpt FAIR 72 46 40 NW8 30.01R Hilton Head Is FAIR 75 54 46 N9G16 30.01R Walterboro FAIR 68 39 34 NW5 30.04R Allendale FAIR 68 36 30 N7 30.04R ...Southern Midlands and Pee Dee... CITY SKY/WX TMP DP RH WIND PRES REMARKS Georgetown FAIR 68 37 32 N15 30.03R Kingstree FAIR 64 34 32 NW7G17 30.06R Orangeburg FAIR 68 39 34 N8 30.04R Barnwell FAIR 64 37 36 CALM 30.06R Aiken FAIR 61 41 48 NW5 30.11R Manning FAIR 63 34 34 N18G25 30.05R Columbia FAIR 65 36 34 N15G25 30.07R Sumter FAIR 63 33 33 N13 30.04R Florence FAIR 62 34 35 N21G29 30.06R Myrtle Beach FAIR 70 41 34 N16 30.01R N Myrtle Beach FAIR 69 39 33 N16G22 30.00R $$ GAZ063-065-086>088-099>101-113>116-118-119-134>141-150-200200- ...Southeast Georgia... CITY SKY/WX TMP DP RH WIND PRES REMARKS Savannah Arpt FAIR 75 49 39 N10 30.00R Hunter AAF FAIR 73 54 50 NW14 29.98R Fort Stewart MOCLDY 74 56 54 W6 29.99R Statesboro FAIR 68 36 30 N9 30.04R Sylvania FAIR 68 46 45 N9 30.05R Claxton FAIR 73 47 39 W6 30.03R ...CSRA, Central and far Southeast Georgia... CITY SKY/WX TMP DP RH WIND PRES REMARKS Thomson FAIR 60 39 45 N7 30.14R Augusta-Bush FAIR 66 39 37 NW9 30.05R Augusta-Daniel FAIR 67 39 35 NW8 30.07R Swainsboro FAIR 64 45 48 N6 30.07R Vidalia FAIR 70 45 40 N8 30.05R Eastman FAIR 68 28 22 N6 30.09R Hazlehurst FAIR 71 44 38 CALM 30.03R Alma FAIR 75 54 47 NW6 30.02R Waycross FAIR 73 59 62 CALM 30.02R Jesup NOT AVBL Baxley FAIR 70 46 43 N5 30.03R Brunswick FAIR 73 55 53 W3 30.02R Saint Simons FAIR 77 59 53 W6 30.00R $$ SCZ027-028-034-036>038-045-046-048>050-GAZ119-141-200200- ...Lake and Supplemental Coastal Observations... STATION/POSITION TIME TEMP WIND PRES WAVE SWELL AIR SEA DIR/SP/G HT/PER HT/PER/DIR (UTC) (F) (DEG/KT/KT) (MB) (FT/S) (FT/S/D) Winyah Bay 0045 72 360/ 11 1015.0R Lake Murray 0020 65 360/ 6/ 14 1016.9 ACE Basin NERRS 0045 74 350/ 3 N/A Fort Pulaski 0100 75 66 300/ 17/ 25 1016.0 Sapelo Island 0100 72 290/ 4 1016.0 $$ ANZ835-935-AMZ111-154-330-350-352-354-370-450-454-472-200200- ...C-MAN and Buoy Observations... STATION/POSITION TIME TEMP WIND PRES WAVE SWELL AIR SEA DIR/SP/G HT/PER HT/PER/DIR (UTC) (F) (DEG/KT/KT) (MB) (FT/S) (FT/S/D) Buoy 41004 0100 69 230/ 12/ 16 1015.0 Buoy 41008 0050 71 66 290/ 6/ 8 1015.2R 2/ 5 2/170/ 5 Folly Beach CMAN 0100 73 310/ 7/ 11 1016.1R Capers Nearshore 0108 70 63 320/ 6/ 10 1015.8R Fripp Nearshore 0108 71 65 330/ 8/ 14 1015.4R STATION/POSITION TIME TEMP WIND PRES WAVE SWELL AIR SEA DIR/SP/G HT/PER HT/PER/DIR (UTC) (F) (DEG/KT/KT) (MB) (FT/S) (FT/S/D) 5E St. Marys GA 0100 67 N/A 2/ 5 Frying Pan Buoy 0100 270/ 14/ 19 1014.9 Buoy 41025 0110 60 67 10/ 23/ 31 1016.0 Cape Lookout NC 0100 350/ 19/ 23 1016.3R Buoy 41002 0100 73 230/ 17/ 21 1015.6 Buoy 41010 0100 74 170/ 6/ 8 1018.4 St Augustine FL 0100 75 69 240/ 5/ 6 1017.6R $$

USA.gov is the U.S. government's official web portal to all federal, state and local government web resources and services.